GEFSSE_850_meantemp_030.txt.gz
Temperature
20 20 19 19 19 19 19 19 19 19 19 19 19 19 19 19 19 19 19 19 19 19 19 19 19 19 19 19 19 20 20 20 20 20 19 19 19 19 19 19 19 19 19
21 20 20 19 19 19 19 19 19 20 20 19 19 19 19 19 19 19 19 19 19 19 19 19 19 19 19 19 19 19 20 20 19 19 19 19 19 19 19 19 19 19 19
21 20 20 19 19 19 19 19 20 20 19 19 19 19 19 19 19 19 19 19 19 19 19 19 19 19 19 19 19 19 19 19 19 19 19 19 19 19 19 19 19 19 19
21 20 20 20 20 20 20 20 20 20 20 20 19 19 19 20 20 19 19 19 19 19 19 19 19 19 19 19 19 19 19 19 19 19 19 19 19 19 19 19 19 19 19
20 20 20 20 20 20 20 20 20 20 20 20 20 20 20 20 20 20 19 19 19 19 19 19 19 18 18 19 19 19 19 19 19 19 19 19 19 19 19 19 19 19 18
20 20 20 20 20 20 20 20 20 20 20 20 20 20 20 20 20 20 19 19 19 19 19 19 18 18 18 18 18 18 18 18 18 18 18 18 18 18 18 18 18 18 18
21 20 20 20 20 20 20 20 20 20 20 20 20 20 20 20 20 19 19 19 19 19 19 19 18 18 18 18 18 18 18 18 18 18 18 18 18 18 18 18 18 18 18
21 21 20 20 20 20 20 20 20 20 19 19 19 19 19 19 19 19 19 19 19 19 19 18 18 18 18 18 18 18 18 18 18 18 18 18 18 18 18 18 18 18 18
21 21 21 21 20 20 20 20 20 20 20 19 19 19 19 19 19 19 19 19 19 19 18 18 18 18 18 18 18 18 18 18 18 18 18 18 18 18 18 18 18 18 18
21 21 21 21 21 20 20 20 20 20 19 19 19 19 19 19 19 19 19 19 19 19 18 18 18 18 18 18 18 18 18 18 18 18 18 18 18 18 18 18 18 18 18
21 21 21 21 21 20 20 20 20 19 19 19 19 19 19 19 19 19 19 19 19 19 18 18 18 18 18 18 18 18 18 18 18 18 18 18 18 18 18 18 18 18 18
21 21 21 21 20 20 20 20 19 19 19 19 19 19 19 19 19 19 19 19 19 19 18 18 18 18 18 18 18 18 18 18 18 18 18 18 18 18 18 18 18 18 18
21 20 20 20 20 20 20 20 19 19 19 19 19 19 19 19 19 19 19 19 19 19 19 18 18 18 18 18 18 18 18 18 18 18 18 17 17 18 18 18 18 18 18
20 20 20 20 20 20 20 20 19 19 19 19 19 19 19 19 19 19 19 19 19 19 19 18 18 18 18 18 18 18 18 18 18 18 17 17 17 17 18 18 18 18 18
19 20 20 20 20 20 19 19 19 19 19 19 19 19 19 19 19 19 19 19 19 19 19 18 18 18 18 18 18 18 18 18 18 17 17 17 17 17 17 17 18 18 18
18 19 19 20 20 20 20 20 19 19 19 19 19 19 19 19 19 19 18 18 19 19 19 18 18 18 18 18 18 18 18 18 18 17 17 17 17 17 17 17 17 17 17
17 18 18 19 19 19 19 19 19 19 19 19 19 19 19 19 19 19 18 18 18 18 18 18 18 18 18 18 18 18 18 18 17 17 17 17 17 17 17 17 17 17 17
17 17 18 18 18 19 19 19 19 19 19 19 19 19 19 19 19 18 18 18 18 18 18 18 18 18 18 18 18 18 18 17 17 17 17 17 17 17 17 17 17 17 17
17 17 17 18 18 18 19 19 19 19 19 19 19 19 19 19 18 18 18 18 18 18 18 18 18 18 18 18 18 18 17 17 17 17 17 17 17 17 17 17 17 17 17
16 17 17 17 18 18 18 18 19 19 20 19 19 19 19 19 18 18 18 18 18 18 18 18 18 18 18 18 18 17 17 17 17 17 17 17 17 17 17 17 17 17 17
16 16 17 17 17 18 18 18 18 19 19 19 19 19 19 19 19 18 18 18 18 18 18 18 18 18 18 17 17 17 17 17 17 17 17 17 17 17 17 17 17 17 17
15 16 16 16 16 17 17 17 17 18 19 19 19 19 19 19 19 18 18 18 18 18 17 17 17 17 17 17 17 17 17 17 17 17 17 17 17 17 17 17 17 17 17
14 15 15 15 16 16 16 16 17 17 18 18 19 19 19 19 19 19 18 18 18 17 17 17 17 17 17 17 17 17 17 17 17 17 17 17 17 17 17 17 17 17 17
13 14 14 14 15 15 15 15 15 16 16 17 18 18 19 19 19 18 18 18 18 17 17 17 17 17 16 17 17 17 17 17 17 17 17 17 17 17 17 17 17 17 17
12 13 13 13 14 14 14 14 14 15 15 16 17 17 18 18 18 18 18 18 17 17 17 17 16 16 16 16 16 16 16 16 16 16 17 17 17 17 17 17 17 17 17
12 12 13 13 13 13 13 14 14 14 14 15 15 16 16 17 17 17 17 17 17 17 16 16 16 16 15 15 15 15 15 15 16 16 16 16 16 16 16 16 16 16 16

GEFSSE_850_meantemp_036.txt.gz
Temperature
19 19 20 19 19 19 19 19 19 19 19 19 19 19 19 19 19 19 19 19 19 19 19 19 19 19 19 19 19 19 19 19 19 19 19 19 19 19 19 19 18 18 18
20 19 20 19 19 19 19 19 19 19 19 19 19 19 19 19 19 19 19 19 19 19 19 19 19 19 19 19 19 19 19 19 19 19 19 19 19 19 19 19 18 18 18
20 19 20 19 19 19 19 19 19 19 19 19 19 19 19 19 19 18 19 19 19 19 19 19 19 19 19 19 19 19 19 19 19 19 19 18 18 19 19 19 19 18 18
20 19 19 20 19 19 19 19 19 19 19 19 19 19 19 19 19 18 18 18 18 18 18 18 18 18 19 18 18 18 18 19 19 19 18 18 18 18 19 18 18 18 18
19 19 19 20 20 20 19 19 19 19 19 19 19 18 18 18 18 18 18 18 18 18 18 18 18 18 18 18 18 18 18 18 19 18 18 18 18 18 18 18 18 18 18
19 19 19 20 20 20 20 20 19 19 19 19 19 19 19 19 19 18 18 18 18 18 18 18 18 18 18 18 18 18 18 18 18 17 17 17 18 18 18 18 18 18 18
20 19 19 20 20 20 20 20 19 19 19 19 19 19 19 19 19 19 18 18 18 18 18 18 18 18 18 18 18 18 18 18 17 17 17 17 18 18 18 18 18 18 18
20 19 19 20 20 20 20 20 19 19 19 19 19 19 19 19 19 19 19 18 18 18 18 18 18 18 18 18 18 18 18 18 18 18 17 17 18 18 18 18 18 18 18
20 19 19 19 19 20 20 19 19 19 19 19 19 19 19 19 19 18 18 18 18 18 18 18 18 18 18 18 18 18 18 18 17 17 17 17 18 18 18 18 18 18 18
19 19 20 19 19 18 18 19 19 19 19 19 19 19 19 19 18 18 18 18 18 18 18 18 18 18 18 18 18 18 18 18 17 17 18 17 18 18 18 18 18 18 18
19 19 19 19 19 18 18 18 18 19 19 18 18 19 19 18 17 18 17 18 18 18 18 18 18 18 18 18 18 18 18 18 18 18 17 17 18 18 18 18 18 18 18
19 19 19 19 19 18 18 18 18 18 18 18 18 18 18 18 17 17 17 18 18 18 18 18 18 18 18 17 18 18 18 18 18 18 17 18 18 18 18 18 18 18 18
19 19 19 19 19 19 18 18 18 18 18 18 18 18 18 18 17 17 17 17 17 18 17 17 18 17 18 18 18 18 18 18 18 18 17 18 17 17 18 18 18 18 18
18 18 19 19 19 18 18 18 18 18 18 18 18 18 18 18 18 18 18 18 17 17 17 17 17 18 18 18 18 19 18 18 18 18 17 18 17 17 17 18 18 18 18
17 18 18 19 19 19 19 18 18 18 18 18 18 18 18 18 18 18 18 17 17 17 17 17 18 18 18 19 19 19 19 18 18 18 17 18 17 17 17 17 17 17 17
17 17 17 18 18 18 18 18 18 18 18 18 18 18 18 18 18 18 18 18 18 17 17 17 18 18 18 18 18 18 19 19 18 17 17 17 17 17 17 17 17 17 17
16 16 17 17 18 18 18 18 18 18 18 18 18 18 18 18 18 18 18 18 18 17 17 17 18 18 18 18 18 18 19 18 18 18 17 17 17 17 17 17 17 17 17
15 16 16 17 18 18 18 18 18 18 18 18 18 18 18 18 18 18 18 17 17 17 17 17 17 17 18 18 18 18 18 18 18 18 18 17 17 17 17 17 17 17 17
15 15 16 16 17 17 18 18 18 18 18 18 18 18 18 18 18 18 18 17 17 17 17 17 17 17 18 18 18 18 18 18 18 18 18 18 17 17 17 17 17 17 17
14 15 15 16 16 17 17 17 18 18 18 18 18 18 18 18 18 18 18 18 17 17 17 17 17 17 17 17 18 18 18 18 18 18 18 18 18 17 17 17 17 17 17
14 14 14 15 15 15 16 16 17 17 17 17 17 18 18 18 18 18 18 18 18 17 17 17 17 17 17 17 17 18 18 18 18 18 18 18 18 17 17 17 17 17 17
13 13 14 14 14 14 15 15 16 16 17 17 17 17 17 17 18 18 18 18 17 17 17 17 17 17 17 17 17 17 17 18 17 18 18 17 18 18 17 17 17 17 17
12 12 12 13 13 13 14 14 15 15 15 16 16 16 17 17 17 17 17 17 17 17 17 17 17 17 17 17 17 17 17 18 18 18 18 17 17 18 18 18 18 17 17
12 12 12 12 12 13 13 13 14 14 14 15 15 16 16 16 16 17 17 17 17 17 17 17 17 17 17 16 16 16 17 17 17 17 17 18 18 17 17 17 17 18 17
11 12 12 12 12 12 13 13 13 14 14 14 15 15 15 16 16 16 16 16 16 16 17 16 16 16 16 16 16 16 16 16 16 17 17 17 17 17 17 17 17 17 17
11 12 12 12 12 12 13 13 13 13 14 14 14 15 15 15 16 16 16 16 16 16 16 16 16 16 16 16 16 16 16 16 16 16 16 16 16 17 16 16 17 17 16

GEFSSE_850_meantemp_042.txt.gz
Temperature
20 21 21 21 20 20 20 20 20 20 20 19 19 19 19 19 19 19 19 19 19 19 19 19 19 19 19 19 19 19 19 19 19 19 19 19 19 19 19 18 18 18 19
21 21 21 21 21 20 20 20 20 20 20 19 19 19 19 19 19 19 19 19 19 19 19 19 19 19 19 19 19 19 19 19 19 19 19 19 19 19 19 19 18 18 18
21 21 21 21 21 20 20 20 20 20 20 20 19 19 19 19 19 19 19 19 19 19 19 19 19 19 19 19 19 19 19 19 19 18 18 18 19 19 19 19 19 19 18
21 21 21 21 21 20 20 20 20 20 20 20 20 19 19 19 19 19 19 19 19 19 19 19 19 19 19 19 19 19 19 19 18 18 18 18 18 19 19 19 19 19 18
20 20 21 21 21 20 20 20 20 20 20 20 20 19 19 19 19 19 19 19 19 19 19 19 19 18 18 18 18 19 19 19 18 18 18 18 19 19 19 19 19 18 18
20 20 21 20 20 20 20 20 20 20 20 20 19 19 19 19 19 19 19 19 19 19 19 19 19 18 18 18 18 18 19 18 18 18 18 18 19 19 19 19 18 18 18
21 20 21 21 20 20 20 20 19 19 19 19 19 19 19 19 19 19 19 19 19 19 19 19 19 18 18 18 18 18 18 18 18 18 18 18 19 19 19 19 18 18 18
21 21 21 21 21 20 20 20 19 19 19 19 19 19 19 19 19 19 19 19 19 19 19 19 18 18 18 18 18 18 18 18 18 18 18 18 19 19 19 19 18 18 18
22 21 21 21 21 20 20 20 20 19 19 19 19 19 19 19 19 19 19 19 19 19 19 19 19 18 18 18 18 18 18 18 18 18 18 18 19 19 19 19 18 18 18
22 22 21 20 20 20 20 20 20 19 19 19 19 19 19 19 19 19 19 19 19 19 19 19 19 19 18 18 18 18 18 18 18 18 18 18 18 19 19 18 18 18 18
21 21 21 20 20 20 20 20 19 19 19 19 19 19 19 19 19 19 19 19 19 19 19 19 19 19 18 18 18 18 18 18 18 18 18 18 19 19 19 19 18 18 18
20 20 20 20 20 20 20 19 19 19 19 19 19 19 19 19 18 18 18 18 18 19 19 19 19 19 19 19 19 19 19 19 18 18 18 18 19 19 19 18 18 18 18
19 20 20 20 20 20 20 19 19 19 19 19 19 19 18 18 18 18 18 18 18 19 19 19 19 19 19 19 18 19 19 19 18 18 18 18 19 19 19 18 18 18 18
19 19 19 20 20 20 20 20 19 19 19 19 18 18 18 18 18 18 18 18 18 18 19 18 19 19 19 19 19 19 19 19 19 19 19 19 19 19 19 18 18 18 18
18 18 18 19 19 19 19 19 19 19 19 19 19 19 18 18 18 18 18 18 18 18 18 18 18 19 19 19 20 20 19 19 19 19 19 18 18 19 18 18 18 18 18
18 18 18 18 18 19 19 19 19 19 19 19 19 19 18 18 18 18 18 18 18 18 18 18 19 19 20 20 20 20 20 20 19 19 19 18 18 18 18 18 18 18 18
18 18 17 17 18 18 18 18 19 19 19 19 19 19 19 18 18 18 18 18 18 18 18 18 19 19 20 20 20 20 20 20 19 19 19 18 18 18 18 18 18 18 18
17 17 17 17 17 17 17 18 18 18 18 18 18 18 19 18 18 18 18 18 18 18 18 19 19 19 20 20 20 20 20 20 19 19 19 18 18 18 18 18 18 18 18
16 16 16 16 16 16 17 17 17 17 18 18 18 18 18 18 18 18 18 18 18 18 18 18 18 19 19 19 19 19 19 19 19 19 19 19 18 18 18 18 18 18 18
16 15 15 16 16 16 16 16 16 16 17 17 17 17 18 18 18 18 18 18 18 18 18 18 18 18 18 19 19 19 19 19 19 19 19 19 19 18 18 18 18 18 18
15 15 15 15 15 15 15 15 15 15 16 16 17 17 17 17 17 17 18 18 18 18 18 18 18 18 18 18 18 19 19 19 19 19 19 19 19 19 18 18 18 18 18
14 14 14 14 14 14 14 14 14 14 15 15 16 16 16 17 17 17 17 17 18 18 18 18 18 18 18 18 18 18 18 19 19 19 19 19 19 19 18 18 18 18 18
13 13 13 13 13 13 13 14 14 14 14 15 15 15 16 16 16 17 17 17 17 17 18 17 17 17 17 17 17 17 17 18 18 18 18 18 18 18 19 18 18 18 18
13 13 13 13 13 13 13 13 13 13 13 14 14 15 15 16 16 16 17 17 17 17 17 17 17 17 17 17 17 17 17 18 18 18 18 18 18 18 18 18 18 18 18
13 12 12 13 13 13 13 13 13 13 13 14 14 14 15 15 16 16 16 16 16 16 17 17 17 17 17 17 17 17 17 17 17 17 17 18 18 18 18 18 18 18 18
13 12 12 12 13 13 13 13 13 13 13 14 14 14 15 15 15 15 16 16 16 16 16 17 17 16 17 17 17 17 17 17 17 17 17 17 17 17 17 18 18 18 18

GEFSSE_850_meantemp_048.txt.gz
Temperature
20 20 20 20 20 20 20 20 20 20 20 20 20 20 20 20 20 20 20 20 20 20 20 20 20 20 20 20 19 19 19 19 19 19 19 19 19 19 19 18 18 19 19
20 20 20 20 20 20 20 20 20 20 20 20 20 20 20 20 20 20 20 20 20 20 20 20 20 20 19 19 19 19 19 19 19 19 19 19 19 19 19 19 18 18 18
21 20 20 20 20 20 20 20 20 20 20 20 20 20 20 20 20 20 20 20 20 20 20 20 20 19 19 19 19 19 19 19 19 19 19 19 19 19 19 19 18 18 18
21 21 21 20 20 20 20 20 20 20 20 20 20 20 20 20 20 20 20 20 20 20 19 19 19 19 19 19 19 19 19 19 19 19 19 19 19 19 19 19 18 18 18
21 21 21 21 21 21 20 20 20 20 20 20 20 20 20 20 20 20 20 20 20 20 19 19 19 19 19 19 19 19 18 18 19 19 18 19 19 19 19 19 18 18 18
21 21 21 21 21 21 21 21 20 20 20 20 20 20 20 20 20 20 20 20 20 20 19 19 19 19 19 19 19 18 18 18 19 19 18 18 19 19 19 19 18 18 18
21 21 21 21 21 21 21 21 20 20 20 20 20 20 20 20 20 20 20 20 20 20 19 19 19 19 19 19 19 18 18 18 18 18 18 19 19 19 19 19 18 18 18
21 21 21 20 20 21 21 21 20 20 20 20 20 20 20 19 20 20 20 20 19 19 19 19 19 19 19 19 18 18 18 18 18 18 18 18 19 19 19 19 18 18 18
20 20 20 20 20 20 20 20 20 20 20 20 20 20 20 19 19 19 19 19 19 19 19 19 19 19 19 19 18 18 18 18 18 18 18 18 18 19 19 18 18 18 18
19 19 19 19 19 19 19 19 19 19 19 19 19 19 19 19 19 19 19 19 19 19 19 19 19 19 19 19 18 18 18 18 18 18 18 18 18 18 19 18 18 18 18
19 19 19 19 19 19 19 19 19 19 19 19 19 19 19 19 19 19 19 19 19 19 19 19 19 19 19 19 18 18 18 18 18 18 18 18 18 18 19 19 18 18 18
18 18 18 18 19 19 19 19 19 19 19 19 19 19 19 19 19 19 19 18 18 18 19 19 19 19 19 19 19 18 18 18 18 18 18 18 18 18 19 19 18 18 18
18 18 18 18 18 18 19 19 19 18 18 18 18 18 19 19 18 18 19 18 18 18 19 19 19 19 19 19 19 19 18 18 18 18 18 18 18 18 19 19 18 18 18
17 17 17 17 17 18 18 18 18 18 18 18 18 18 19 19 19 18 19 19 18 18 18 19 19 19 19 19 19 19 18 18 18 18 18 18 18 18 19 19 18 18 18
17 17 17 17 17 17 17 17 17 18 18 18 18 18 18 18 18 18 18 19 18 18 18 19 19 19 19 19 19 19 18 18 18 18 18 18 18 18 19 19 18 18 18
17 17 17 17 17 17 17 17 17 17 17 17 18 18 18 18 18 18 18 18 18 18 18 18 19 19 19 18 19 19 19 18 18 18 18 18 18 18 18 19 18 18 18
16 16 16 16 16 16 16 16 16 17 17 17 17 17 18 18 18 18 18 18 18 18 18 18 18 18 18 18 19 19 19 19 19 18 19 19 19 18 18 18 18 18 18
16 15 15 15 15 15 15 16 16 16 16 16 17 17 17 17 17 17 18 18 18 18 18 18 18 18 18 18 19 19 19 19 19 19 19 19 19 18 18 18 18 18 18
15 15 15 15 15 15 15 15 15 15 16 16 16 16 17 17 17 17 17 18 18 18 18 18 18 18 18 18 19 19 19 19 19 19 19 19 19 18 18 18 18 18 18
14 14 14 14 14 14 14 15 15 15 15 15 15 16 16 16 16 16 17 17 17 17 17 18 18 18 18 18 18 18 19 19 19 19 19 19 19 18 18 18 18 18 18
14 14 14 14 14 14 14 14 14 15 15 15 15 15 15 16 16 16 16 16 17 17 17 17 17 17 17 18 18 18 18 19 19 19 19 19 19 18 18 18 18 18 18
13 13 13 13 13 13 13 13 14 14 14 14 15 15 15 15 15 15 16 16 16 16 17 17 17 17 17 17 17 17 18 18 18 18 19 19 18 18 18 18 18 18 18
13 13 13 13 13 13 13 13 13 14 14 14 14 15 15 15 15 15 15 16 16 16 16 17 17 17 17 17 17 17 17 18 18 18 18 18 18 18 18 18 18 18 18
13 12 12 12 12 12 12 13 13 13 13 13 14 14 14 14 15 15 15 15 16 16 16 16 16 16 16 17 17 17 17 18 18 18 18 18 18 18 18 18 18 18 18
13 12 12 12 12 12 12 12 12 13 13 13 13 14 14 14 14 14 15 15 15 16 16 16 16 16 16 16 16 17 17 17 17 18 18 18 18 18 17 18 18 18 18
13 13 12 12 12 12 12 12 12 12 12 13 13 13 14 14 14 14 14 15 15 15 15 16 16 16 16 16 16 16 16 16 17 17 17 17 17 17 17 17 17 17 18